EN

Hourly Weather Luderitz

Today, 26 November, Thursday

Time Temperature Precipitation Wind Pressure Humidity
00:00 +17°C° 0 mm 11 mps 757 mmHg 58%
01:00 +16°C° 0 mm 11 mps 756 mmHg 61%
02:00 +14°C° 0 mm 10 mps 756 mmHg 62%
03:00 +14°C° 0 mm 10 mps 756 mmHg 64%
04:00 +14°C° 0 mm 10 mps 756 mmHg 65%
05:00 +17°C° 0 mm 10 mps 757 mmHg 57%
06:00 +18°C° 0 mm 9 mps 757 mmHg 49%
07:00 +21°C° 0 mm 9 mps 757 mmHg 44%
08:00 +24°C° 0 mm 10 mps 757 mmHg 36%
09:00 +28°C° 0 mm 11 mps 757 mmHg 28%
10:00 +33°C° 0 mm 12 mps 757 mmHg 20%
11:00 +33°C° 0 mm 12 mps 756 mmHg 21%
12:00 +33°C° 0 mm 13 mps 755 mmHg 23%
13:00 +34°C° 0 mm 14 mps 755 mmHg 25%
14:00 +33°C° 0 mm 14 mps 754 mmHg 26%
15:00 +32°C° 0 mm 14 mps 754 mmHg 28%
16:00 +31°C° 0 mm 14 mps 754 mmHg 30%
17:00 +28°C° 0 mm 13 mps 754 mmHg 33%
18:00 +26°C° 0 mm 13 mps 755 mmHg 36%
19:00 +24°C° 0 mm 12 mps 755 mmHg 39%
20:00 +22°C° 0 mm 11 mps 755 mmHg 42%
21:00 +21°C° 0 mm 11 mps 756 mmHg 44%
22:00 +19°C° 0 mm 10 mps 756 mmHg 47%
23:00 +19°C° 0 mm 10 mps 756 mmHg 50%

Tomorrow, 27 November, Friday

Time Temperature Precipitation Wind Pressure Humidity
00:00 +18°C° 0 mm 10 mps 756 mmHg 52%
01:00 +18°C° 0 mm 10 mps 755 mmHg 54%
02:00 +17°C° 0 mm 10 mps 755 mmHg 57%
03:00 +17°C° 0 mm 9 mps 755 mmHg 59%
04:00 +17°C° 0 mm 9 mps 754 mmHg 61%
05:00 +18°C° 0 mm 9 mps 755 mmHg 54%
06:00 +21°C° 0 mm 8 mps 755 mmHg 48%
07:00 +23°C° 0 mm 8 mps 755 mmHg 42%
08:00 +26°C° 0 mm 8 mps 755 mmHg 40%
09:00 +28°C° 0 mm 8 mps 755 mmHg 37%
10:00 +31°C° 0 mm 8 mps 755 mmHg 35%
11:00 +29°C° 0 mm 8 mps 755 mmHg 38%
12:00 +29°C° 0 mm 8 mps 755 mmHg 42%
13:00 +28°C° 0 mm 8 mps 754 mmHg 45%
14:00 +27°C° 0 mm 8 mps 755 mmHg 48%
15:00 +26°C° 0 mm 8 mps 755 mmHg 51%
16:00 +26°C° 0 mm 8 mps 755 mmHg 54%
17:00 +23°C° 0 mm 8 mps 755 mmHg 61%
18:00 +21°C° 0 mm 8 mps 755 mmHg 68%
19:00 +18°C° 0 mm 8 mps 756 mmHg 75%
20:00 +18°C° 0 mm 8 mps 756 mmHg 79%
21:00 +17°C° 0 mm 8 mps 757 mmHg 83%
22:00 +16°C° 0 mm 7 mps 757 mmHg 87%
23:00 +16°C° 0 mm 7 mps 757 mmHg 87%

Day after tomorrow, 28 November, Saturday

Time Temperature Precipitation Wind Pressure Humidity
00:00 +16°C° 0 mm 6 mps 756 mmHg 87%
01:00 +15°C° 0 mm 6 mps 756 mmHg 87%
02:00 +15°C° 0 mm 6 mps 756 mmHg 88%
03:00 +14°C° 0 mm 6 mps 756 mmHg 90%
04:00 +14°C° 0 mm 6 mps 756 mmHg 91%
05:00 +16°C° 0 mm 6 mps 756 mmHg 82%
06:00 +17°C° 0 mm 7 mps 757 mmHg 74%
07:00 +18°C° 0 mm 7 mps 757 mmHg 66%
08:00 +22°C° 0 mm 8 mps 757 mmHg 56%
09:00 +26°C° 0 mm 9 mps 757 mmHg 47%
10:00 +28°C° 0 mm 10 mps 757 mmHg 37%
11:00 +28°C° 0 mm 11 mps 756 mmHg 38%
12:00 +29°C° 0 mm 11 mps 756 mmHg 40%
13:00 +29°C° 0 mm 12 mps 756 mmHg 41%
14:00 +28°C° 0 mm 12 mps 756 mmHg 41%
15:00 +28°C° 0 mm 13 mps 756 mmHg 41%
16:00 +27°C° 0 mm 13 mps 755 mmHg 42%
17:00 +26°C° 0 mm 13 mps 756 mmHg 46%
18:00 +23°C° 0 mm 12 mps 756 mmHg 50%
19:00 +22°C° 0 mm 12 mps 757 mmHg 54%
20:00 +21°C° 0 mm 12 mps 757 mmHg 59%
21:00 +19°C° 0 mm 11 mps 757 mmHg 64%
22:00 +18°C° 0 mm 11 mps 757 mmHg 69%
23:00 +17°C° 0 mm 10 mps 757 mmHg 69%

29 November, Sunday

Time Temperature Precipitation Wind Pressure Humidity
00:00 +17°C° 0 mm 10 mps 756 mmHg 69%
01:00 +16°C° 0 mm 10 mps 756 mmHg 69%
02:00 +16°C° 0 mm 10 mps 756 mmHg 72%
03:00 +15°C° 0 mm 9 mps 756 mmHg 74%
04:00 +15°C° 0 mm 9 mps 756 mmHg 77%
05:00 +16°C° 0 mm 9 mps 756 mmHg 69%
06:00 +18°C° 0 mm 9 mps 756 mmHg 61%
07:00 +19°C° 0 mm 9 mps 756 mmHg 53%
08:00 +23°C° 0 mm 9 mps 756 mmHg 45%
09:00 +27°C° 0 mm 10 mps 755 mmHg 37%
10:00 +31°C° 0 mm 10 mps 755 mmHg 28%
11:00 +31°C° 0 mm 11 mps 755 mmHg 32%
12:00 +31°C° 0 mm 12 mps 754 mmHg 35%
13:00 +31°C° 0 mm 12 mps 754 mmHg 39%
14:00 +29°C° 0 mm 12 mps 754 mmHg 43%
15:00 +28°C° 0 mm 12 mps 754 mmHg 47%
16:00 +27°C° 0 mm 11 mps 754 mmHg 51%
17:00 +24°C° 0 mm 11 mps 754 mmHg 58%
18:00 +22°C° 0 mm 10 mps 754 mmHg 65%
19:00 +19°C° 0 mm 9 mps 755 mmHg 73%
20:00 +18°C° 0 mm 9 mps 755 mmHg 77%
21:00 +17°C° 0 mm 8 mps 755 mmHg 82%
22:00 +16°C° 0 mm 8 mps 756 mmHg 86%
23:00 +16°C° 0 mm 8 mps 756 mmHg 89%

30 November, Monday

Time Temperature Precipitation Wind Pressure Humidity
00:00 +15°C° 0 mm 8 mps 755 mmHg 91%
01:00 +15°C° 0 mm 7 mps 755 mmHg 93%
02:00 +15°C° 0 mm 7 mps 755 mmHg 92%
03:00 +14°C° 0 mm 7 mps 755 mmHg 91%
04:00 +14°C° 0 mm 6 mps 755 mmHg 90%
05:00 +15°C° 0 mm 6 mps 756 mmHg 83%
06:00 +17°C° 0 mm 6 mps 756 mmHg 77%
07:00 +19°C° 0 mm 6 mps 757 mmHg 70%
08:00 +21°C° 0 mm 7 mps 757 mmHg 61%
09:00 +23°C° 0 mm 8 mps 757 mmHg 52%
10:00 +26°C° 0 mm 9 mps 757 mmHg 43%
11:00 +26°C° 0 mm 9 mps 756 mmHg 44%
12:00 +27°C° 0 mm 10 mps 756 mmHg 44%
13:00 +27°C° 0 mm 10 mps 756 mmHg 45%
14:00 +26°C° 0 mm 10 mps 756 mmHg 49%
15:00 +24°C° 0 mm 10 mps 756 mmHg 53%
16:00 +23°C° 0 mm 10 mps 756 mmHg 56%
17:00 +21°C° 0 mm 10 mps 756 mmHg 63%
18:00 +19°C° 0 mm 10 mps 757 mmHg 69%
19:00 +17°C° 0 mm 10 mps 757 mmHg 76%
20:00 +17°C° 0 mm 9 mps 758 mmHg 76%
21:00 +16°C° 0 mm 9 mps 758 mmHg 77%
22:00 +16°C° 0 mm 8 mps 759 mmHg 77%
23:00 +15°C° 0 mm 8 mps 758 mmHg 78%

1 December, Tuesday

Time Temperature Precipitation Wind Pressure Humidity
00:00 +15°C° 0 mm 7 mps 758 mmHg 78%
01:00 +14°C° 0 mm 7 mps 758 mmHg 79%
02:00 +14°C° 0 mm 7 mps 757 mmHg 79%
03:00 +14°C° 0 mm 7 mps 757 mmHg 79%
04:00 +12°C° 0 mm 7 mps 757 mmHg 79%
05:00 +15°C° 0 mm 8 mps 757 mmHg 71%
06:00 +16°C° 0 mm 9 mps 758 mmHg 62%
07:00 +18°C° 0 mm 10 mps 758 mmHg 54%
08:00 +22°C° 0 mm 10 mps 758 mmHg 44%
09:00 +26°C° 0 mm 11 mps 757 mmHg 33%
10:00 +29°C° 0 mm 11 mps 757 mmHg 23%
11:00 +29°C° 0 mm 12 mps 757 mmHg 25%
12:00 +29°C° 0 mm 13 mps 756 mmHg 28%
13:00 +29°C° 0 mm 14 mps 756 mmHg 30%
14:00 +28°C° 0 mm 14 mps 756 mmHg 33%
15:00 +27°C° 0 mm 15 mps 755 mmHg 35%
16:00 +26°C° 0 mm 15 mps 755 mmHg 38%
17:00 +24°C° 0 mm 14 mps 755 mmHg 44%
18:00 +22°C° 0 mm 13 mps 756 mmHg 50%
19:00 +19°C° 0 mm 13 mps 756 mmHg 56%
20:00 +18°C° 0 mm 12 mps 756 mmHg 62%
21:00 +17°C° 0 mm 12 mps 756 mmHg 67%
22:00 +16°C° 0 mm 11 mps 757 mmHg 73%
23:00 +16°C° 0 mm 11 mps 756 mmHg 73%
Show more